Regional Weather Roundup
Issued by NWS Charleston, SC

Home | Current Version | Previous Version | Text Only | Print | Product List | Glossary On
Versions: 1 2 3 4 5 6 7 8 9 10 11 12 13 14 15 16 17 18 19 20 21 22 23 24 25 26 27 28 29 30 31 32 33 34 35 36 37 38 39 40 41 42 43 44 45 46 47 48 49 50
000
ASUS42 KCHS 250125
RWRCHS

REGIONAL WEATHER ROUNDUP
NATIONAL WEATHER SERVICE CHARLESTON SC
800 PM EST MON NOV 24 2014

NOTE: "FAIR" INDICATES FEW OR NO CLOUDS BELOW 12,000 FEET WITH NO
SIGNIFICANT WEATHER AND/OR OBSTRUCTIONS TO VISIBILITY.

NOT ALL STATIONS ARE QUALITY CONTROLLED BY THE NATIONAL
WEATHER SERVICE. USE DATA WITH CAUTION...ESPECIALLY
DEWPOINT OBSERVATIONS.

SCZ027-030-031-034>040-042>050-250200-
...SOUTHEAST SOUTH CAROLINA...

CITY           SKY/WX    TMP DP  RH WIND       PRES   REMARKS
N CHARLESTON   LGT RAIN  66  64  94 S7        29.97R
WATERFRONT PRK   N/A     63 N/A N/A SW6         N/A
MOUNT PLEASANT CLOUDY    64  64 100 SW7       29.99R VSB 1
JOHNS ISLAND   CLOUDY    64  64 100 CALM      29.98R FOG
PINOPOLIS        N/A     66  63  88 S3        29.86F
MONCKS CORNER  FAIR      66  66 100 S7        29.97R
SUMMERVILLE    LGT RAIN  64  64 100 CALM      29.95F
BEAUFORT MCAS  CLOUDY    65  64  97 SE6       29.94F
BEAUFORT ARPT  LGT RAIN  64  64 100 CALM      29.94F
HILTON HEAD IS CLOUDY    64  64 100 SE3       29.97S FOG
WALTERBORO     CLOUDY    64 N/A N/A S5        29.96S
ALLENDALE      LGT RAIN  63  63 100 SW3       29.92F

...SOUTHERN MIDLANDS AND PEE DEE...

CITY           SKY/WX    TMP DP  RH WIND       PRES   REMARKS
GEORGETOWN     NOT AVBL
KINGSTREE      NOT AVBL
ORANGEBURG     LGT RAIN  63  60  90 SW9       29.96R
BARNWELL       LGT RAIN  64  63  94 CALM      29.92F
AIKEN          FAIR      64  64 100 S12       29.96R
MANNING        NOT AVBL
COLUMBIA       LGT RAIN  68  65  90 S12       29.92R
SUMTER         LGT RAIN  64  61  88 S13       29.93R
FLORENCE       CLOUDY    65  62  90 S9        29.91R
MYRTLE BEACH   CLOUDY    68  63  83 S6        29.95F FOG
N MYRTLE BEACH CLOUDY    64  63  96 S9        29.95F

$$

GAZ063-065-086>088-099>101-113>116-118-119-134>141-150-250200-
...SOUTHEAST GEORGIA...

CITY           SKY/WX    TMP DP  RH WIND       PRES   REMARKS
SAVANNAH ARPT  CLOUDY    68  64  87 S6        29.96S
HUNTER AAF     CLOUDY    65  65 100 SE5       29.94S
FORT STEWART   LGT RAIN  66  66 100 CALM      29.95R
STATESBORO     NOT AVBL
SYLVANIA       CLOUDY    63  62  97 CALM      29.95R
CLAXTON        LGT RAIN  64  64 100 CALM      29.96R

...CSRA...CENTRAL AND FAR SOUTHEAST GEORGIA...

CITY           SKY/WX    TMP DP  RH WIND       PRES   REMARKS
THOMSON        CLOUDY    69  69 100 S7        29.96R
AUGUSTA-BUSH   LGT RAIN  66  63  90 S12       29.92R
AUGUSTA-DANIEL CLOUDY    67  63  87 S8        29.92R
SWAINSBORO     MOCLDY    66  66 100 S6        29.97R
VIDALIA        CLOUDY    63  63 100 SW6       29.97R
HAZLEHURST     CLOUDY    66  66 100 CALM      29.96R FOG
ALMA           CLOUDY    63  60  90 S6        29.96R
WAYCROSS       DRIZZLE   68  67  98 SW5       29.97R
JESUP          CLOUDY    70  68  94 CALM      29.96S
BAXLEY         CLOUDY    64  63  94 CALM      29.96R
BRUNSWICK      CLOUDY    68  66  94 CALM      29.98R
SAINT SIMONS   CLOUDY    68  65  90 CALM      29.96S

$$

SCZ027-028-034-036>038-045-046-048>050-GAZ119-141-250200-
...LAKE AND SUPPLEMENTAL COASTAL OBSERVATIONS...

STATION/POSITION TIME  TEMP    WIND        PRES    WAVE   SWELL
                       AIR SEA DIR/SP/G            HT/PER HT/PER/DIR
                 (UTC) (F)     (DEG/KT/KT) (MB)    (FT/S) (FT/S/D)
UPR LAKE MARION  NOT AVBL
WINYAH BAY       0100   65     180/  3     1014.0S
LAKE MURRAY      0100   65     200/  2/  6 1011.5R
ACE BASIN NERRS  0100   63        CALM     1015.0R
FORT PULASKI     0100   65     130/  3/  5 1014.7R
SAPELO ISLAND    NOT AVBL

$$

ANZ835-935-AMZ111-154-330-350-352-354-370-450-454-472-250200-
...C-MAN AND BUOY OBSERVATIONS...

STATION/POSITION TIME  TEMP    WIND        PRES    WAVE   SWELL
                       AIR SEA DIR/SP/G            HT/PER HT/PER/DIR
                 (UTC) (F)     (DEG/KT/KT) (MB)    (FT/S) (FT/S/D)
FOLLY BEACH CMAN 0100   62     230/  5/  5 1015.7R
BUOY 41004       0100   73 75  270/ 10/ 10 1014.6R   8/ 9   7/ 9
BUOY 41008       0100   66 65   40/  4/  6 1014.9R   5/ 9   5/100/ 9
CAPERS NEARSHORE 0000   62     210/  8/ 10   N/A
FRIPP NEARSHORE  NOT AVBL


STATION/POSITION TIME  TEMP    WIND        PRES    WAVE   SWELL
                       AIR SEA DIR/SP/G            HT/PER HT/PER/DIR
                 (UTC) (F)     (DEG/KT/KT) (MB)    (FT/S) (FT/S/D)
5E ST. MARYS GA  0100      62                N/A     4/ 9
FRYING PAN BUOY  0100   72 69  230/ 14/ 16 1015.2R   7/10   5/120/10
BUOY 41025       0100   75     210/ 16/ 19 1013.6R   8/ 9   7/160/ 9
CAPE LOOKOUT NC  0100   68     230/ 11/ 16 1014.0R
BUOY 41002       0014   75 74  200/ 17/ 21 1018.4R   7/ 8
BUOY 41010       0100   79 78  180/ 14/ 16 1017.0R   7/10   7/120/10
ST AUGUSTINE FL  0100   68     180/  7/  8 1015.4R


$$


USA.gov is the U.S. government's official web portal to all federal, state and local government web resources and services.